sat.trackr.live / text

‹ back to catalog

STARLINK-35410

NORAD 66024 · 2025-232V

PAYLOAD ACTIVE UNKNOWN

§ Identity

Operator
Country
US
Launch date
2025-10-16
Launch site
AFETR
Launch vehicle
Mass (kg)
RCS (m²)

Purposes: comms

External: N2YO · Heavens-Above · Gunter

§ Orbital elements

Epoch: 2026-05-25T04:39:12.699936Z

Period
94.11 min
Inclination
53.1549°
Eccentricity
0.0000973
Mean motion
15.30196866 rev/d
Perigee alt
474.6 km
Apogee alt
475.9 km
Semi-major
6,853.4 km
B*
5.8403e-4
RAAN
108.1962°
Arg perigee
54.9913°
Mean anomaly
305.1179°
Rev number
3,515

§ Raw data

STARLINK-354101 66024U 25232V   26145.19389699  .00016976  00000+0  58403-3 0  99952 66024  53.1549 108.1962 0000973  54.9913 305.1179 15.30196866 35159

JSON: /api/v1/satellites/66024 · /tle

For live sub-satellite position, see the globe view (requires WebGL).

§ Visibility from observer

Set your observer location to see the next 7 days of passes ≥ 10°. The values pass through the URL so the page stays shareable.

No JS? Fill the form by hand. The geolocation button needs JavaScript.